FENGYUN 1C DEB, 31012

Orbit data source: Space-Track

FENGYUN 1C DEB, 31012 is space debris in SSO originally from a launch on Mon, 10 May 1999 UTC launched from the Taiyaun Space Center, China (TSC). Fengyun 1C debris stems from the Chinese weather satellite Fengyun-1C, which was intentionally destroyed by a Chinese anti-satellite missile in 2007. This event dramatically increased the amount of space debris, with thousands of trackable fragments posing hazards to satellites and human spaceflight. The Fengyun 1C debris cloud has become a focal point in discussions about space sustainability and the need for international regulations to prevent the creation of new debris.

Loading next visibility...
Identifier
31012, 1999-025BDE
Orbit
SSO
Country
Flag of CNCN / PRC
Related business
Manufacturer
Unknown
Mission
Spacecraft
Bus & Motor
Unknown
Mass
Unknown
Launch date (UTC)
1999-05-10 (27 years ago)
Launch vehicle
Unknown
Launch site
Taiyaun Space Center, China (TSC)
Object type
Payload
Rocket body
Debris
Shape & HBR
Unknown shape, 0.1 m
Radar Cross Section
Small (<0.1 m²)

Expand to show TLE details & history
Last TLE update: 2 days ago

TLE from 2 days ago
0 FENGYUN 1C DEB
1 31012U 99025BDE 26236.69884081  .00000186  00000-0  90553-4 0  9996
2 31012  98.8912 144.7189 0081102 231.1940 157.9637 14.28071652 13673
Epoch: 2026-08-24T16:46Z
TLE epoch observation values (Epoch: 2026-08-24T16:46:19.845Z)
Latitude
29.16218°
Longitude
-84.82217°
Altitude
855.828 km
Speed
7.399 km/s
True Right ascension
09h 18m 56s
True Declination
29° 01' 05"
Sunlit
Object was in daylight at epoch
Visualization orbit readout
Latitude
Unknown
Longitude
Unknown
Altitude
Unknown
Speed
Unknown
Apparent Right ascension
Unknown
Apparent Declination
Unknown
Sunlit
N/A
Visualization observer readout
Local Sidereal Time
01:46:22
Azimuth
Unknown
Elevation
Unknown
Doppler factor
Unknown
Orbital elements
Apogee altitude
853.518 km
Perigee altitude
737.162 km
Semi-major axis
7,173.477 km
Eccentricity
0.00811
Inclination
98.8912°
RAAN
144.7189°
Arg. of periapsis
231.194°
True anomaly
158.30914°
Mean anomaly
157.9637°
Eccentric anomaly
158.13674°
Mean motion
3.57231 °/min
Orbital period
100.78 mins
BSTAR
0.000090553
Loading maneuver chart data...
Computing Atmospheric mass density...
Loading historical data...
Loading historical data...
Loading historical data...
Loading historical data...
Loading historical data...
Loading historical data...
Loading historical data...

Documentation

Showing up to 5 results
|